Aitkin, MN

9:56 PM CDT on July 25, 2017 (GMT -0500)
Aitkin Municipal / Steve Kurtz Field

Weather History for KAIT - November, 2012

Change the Weather History Date:

Sunday, November 25, 2012

  Actual Average Record
Temperature  
Mean Temperature 22 °F -  
Max Temperature 28 °F 32 °F 52 °F (1984)
Min Temperature 15 °F 13 °F -11 °F (1985)
Degree Days  
Heating Degree Days 44    
Moisture  
Dew Point 15 °F    
Average Humidity 68    
Maximum Humidity 74    
Minimum Humidity 54    
Precipitation  
Precipitation 0.00 in - - ()
Sea Level Pressure  
Sea Level Pressure 29.91 in    
Wind  
Wind Speed 5 mph (WNW)    
Max Wind Speed 14 mph    
Max Gust Speed 20 mph    
Visibility 8 miles    
Events Snow    
Averages and records for this station are not official NWS values.
T = Trace of Precipitation, MM = Missing Value Source: NWS Daily Summary

Daily Weather History Graph

Daily Weather History Graph

Search for Another Location

Airport or City:

Trip Planner

Search our weather history database for the weather conditions in past years. The results will help you decide how hot, cold, wet, or windy it might be!

Date:

Astronomy

Nov. 25, 2012 Rise Set
Actual Time 7:31 AM CST 4:32 PM CST
Civil Twilight 6:57 AM CST 5:06 PM CST
Nautical Twilight 6:19 AM CST 5:43 PM CST
Astronomical Twilight 5:43 AM CST 6:19 PM CST
Moon 2:55 PM CST (11/25) 4:38 AM CST (11/25)
Length of Visible Light 10h 08m
Length of Day
9h 00m
Waxing Gibbous, 93% of the Moon is Illuminated
Nov 25
Waxing Gibbous
Nov 28
Full
Dec 6
Last Quarter
Dec 13
New
Dec 19
First Quarter

Hourly Weather History & Observations

Time (CST) Temp. Windchill Dew Point Humidity Pressure Visibility Wind Dir Wind Speed Gust Speed Precip Events Conditions
12:12 AM 24.8 °F - 15.8 °F 69% 29.77 in 10.0 mi Calm Calm - N/A   Unknown
12:32 AM 24.8 °F - 15.8 °F 69% 29.77 in 10.0 mi Calm Calm - N/A   Unknown
12:52 AM 24.8 °F 20.5 °F 15.8 °F 69% 29.77 in 10.0 mi WSW 3.5 mph - N/A   Overcast
1:12 AM 24.8 °F - 15.8 °F 69% 29.77 in 10.0 mi Calm Calm - N/A   Overcast
1:33 AM 24.8 °F 20.5 °F 15.8 °F 69% 29.78 in 10.0 mi West 3.5 mph - N/A   Overcast
1:48 AM 24.8 °F - 15.8 °F 69% 29.79 in 10.0 mi Calm Calm - N/A   Overcast
2:23 AM 24.8 °F 19.1 °F 15.8 °F 69% 29.80 in 10.0 mi West 4.6 mph - N/A   Overcast
2:33 AM 24.8 °F 19.1 °F 17.6 °F 74% 29.80 in 10.0 mi West 4.6 mph - N/A   Overcast
2:53 AM 26.6 °F 20.0 °F 17.6 °F 69% 29.80 in 10.0 mi West 5.8 mph - N/A   Overcast
3:12 AM 26.6 °F 19.1 °F 17.6 °F 69% 29.81 in 10.0 mi WNW 6.9 mph - N/A   Overcast
3:33 AM 26.6 °F 19.1 °F 17.6 °F 69% 29.81 in 10.0 mi West 6.9 mph - N/A   Overcast
3:53 AM 26.6 °F 20.0 °F 19.4 °F 74% 29.81 in 10.0 mi NW 5.8 mph - N/A   Overcast
4:12 AM 26.6 °F 22.6 °F 19.4 °F 74% 29.82 in 10.0 mi WNW 3.5 mph - N/A   Overcast
4:33 AM 26.6 °F 19.1 °F 17.6 °F 69% 29.83 in 10.0 mi WNW 6.9 mph - N/A   Overcast
4:52 AM 24.8 °F 13.4 °F 17.6 °F 74% 29.84 in 10.0 mi NW 12.7 mph - N/A   Overcast
5:13 AM 24.8 °F 16.9 °F 17.6 °F 74% 29.84 in 10.0 mi WNW 6.9 mph 16.1 mph N/A   Overcast
5:33 AM 24.8 °F 16.9 °F 17.6 °F 74% 29.84 in 10.0 mi WNW 6.9 mph - N/A   Overcast
5:52 AM 24.8 °F 20.5 °F 17.6 °F 74% 29.84 in 10.0 mi West 3.5 mph - N/A   Overcast
6:13 AM 24.8 °F 19.1 °F 17.6 °F 74% 29.84 in 10.0 mi WNW 4.6 mph - N/A   Overcast
6:33 AM 24.8 °F 20.5 °F 17.6 °F 74% 29.84 in 10.0 mi West 3.5 mph - N/A   Overcast
6:52 AM 24.8 °F 16.1 °F 15.8 °F 69% 29.85 in 10.0 mi NW 8.1 mph - N/A   Overcast
7:13 AM 24.8 °F 17.9 °F 15.8 °F 69% 29.85 in 10.0 mi NW 5.8 mph - N/A   Overcast
7:52 AM 23.0 °F 15.8 °F 15.8 °F 74% 29.87 in 10.0 mi West 5.8 mph - N/A   Overcast
8:13 AM 23.0 °F 15.8 °F 15.8 °F 74% 29.87 in 10.0 mi NW 5.8 mph - N/A   Overcast
8:33 AM 23.0 °F 13.9 °F 15.8 °F 74% 29.89 in 10.0 mi WNW 8.1 mph - N/A   Overcast
8:52 AM 23.0 °F 14.7 °F 15.8 °F 74% 29.91 in 10.0 mi West 6.9 mph - N/A   Overcast
9:13 AM 21.2 °F 13.6 °F 14.0 °F 74% 29.91 in 4.0 mi NW 5.8 mph - N/A Snow Light Snow
9:32 AM 21.2 °F 13.6 °F 14.0 °F 74% 29.91 in 7.0 mi NW 5.8 mph - N/A Snow Light Snow
9:52 AM 23.0 °F 17.0 °F 14.0 °F 68% 29.91 in 10.0 mi West 4.6 mph - N/A   Overcast
10:13 AM 24.8 °F 19.1 °F 14.0 °F 64% 29.91 in 10.0 mi West 4.6 mph - N/A   Overcast
10:32 AM 24.8 °F 17.9 °F 14.0 °F 64% 29.91 in 10.0 mi WSW 5.8 mph - N/A Snow Light Snow
10:52 AM 24.8 °F 16.1 °F 14.0 °F 64% 29.91 in 10.0 mi WSW 8.1 mph - N/A Snow Light Snow
11:13 AM 24.8 °F 17.9 °F 15.8 °F 69% 29.91 in 10.0 mi West 5.8 mph - N/A   Overcast
11:32 AM 24.8 °F 17.9 °F 15.8 °F 69% 29.91 in 4.0 mi WSW 5.8 mph - N/A Snow Light Snow
11:52 AM 26.6 °F 18.2 °F 15.8 °F 64% 29.90 in 7.0 mi WSW 8.1 mph - N/A Snow Light Snow
12:13 PM 26.6 °F 18.2 °F 15.8 °F 64% 29.90 in 10.0 mi WSW 8.1 mph 16.1 mph N/A Snow Light Snow
12:32 PM 26.6 °F 21.2 °F 17.6 °F 69% 29.90 in 7.0 mi WSW 4.6 mph - N/A Snow Light Snow
12:52 PM 26.6 °F 18.2 °F 17.6 °F 69% 29.90 in 5.0 mi West 8.1 mph - N/A Snow Light Snow
1:13 PM 28.4 °F 21.2 °F 17.6 °F 64% 29.90 in 4.0 mi West 6.9 mph - N/A Snow Light Snow
1:32 PM 28.4 °F 21.2 °F 17.6 °F 64% 29.90 in 2.5 mi West 6.9 mph - N/A Snow Light Snow
1:52 PM 26.6 °F 19.1 °F 19.4 °F 74% 29.89 in 2.0 mi WSW 6.9 mph - N/A Snow Light Snow
2:13 PM 26.6 °F 18.2 °F 19.4 °F 74% 29.89 in 3.0 mi WSW 8.1 mph - N/A Snow Light Snow
2:32 PM 26.6 °F 21.2 °F 19.4 °F 74% 29.89 in 2.0 mi WSW 4.6 mph - N/A Snow Light Snow
2:52 PM 26.6 °F 20.0 °F 19.4 °F 74% 29.90 in 2.5 mi West 5.8 mph - N/A Snow Light Snow
3:13 PM 28.4 °F 22.2 °F 19.4 °F 69% 29.90 in 5.0 mi West 5.8 mph - N/A Snow Light Snow
3:32 PM 26.6 °F 20.0 °F 19.4 °F 74% 29.91 in 4.0 mi West 5.8 mph - N/A Snow Light Snow
3:52 PM 26.6 °F 18.2 °F 19.4 °F 74% 29.92 in 5.0 mi West 8.1 mph - N/A Snow Light Snow
4:13 PM 26.6 °F 20.0 °F 19.4 °F 74% 29.92 in 10.0 mi WNW 5.8 mph - N/A   Overcast
4:32 PM 26.6 °F 21.2 °F 19.4 °F 74% 29.93 in 2.5 mi WNW 4.6 mph - N/A Snow Light Snow
4:53 PM 26.6 °F 20.0 °F 19.4 °F 74% 29.94 in 2.0 mi NW 5.8 mph - N/A Snow Light Snow
5:12 PM 26.6 °F 17.5 °F 17.6 °F 69% 29.95 in 10.0 mi WNW 9.2 mph 17.3 mph N/A Snow Light Snow
5:52 PM 24.8 °F 16.1 °F 15.8 °F 69% 29.97 in 10.0 mi NW 8.1 mph 16.1 mph N/A   Overcast
6:12 PM 24.8 °F 16.1 °F 12.2 °F 59% 29.98 in 10.0 mi NW 8.1 mph - N/A   Overcast
6:33 PM 24.8 °F 16.1 °F 10.4 °F 54% 29.99 in 10.0 mi NW 8.1 mph - N/A   Mostly Cloudy
6:52 PM 24.8 °F 16.9 °F 10.4 °F 54% 30.00 in 10.0 mi NW 6.9 mph - N/A   Mostly Cloudy
7:12 PM 23.0 °F 18.4 °F 10.4 °F 59% 30.00 in 10.0 mi WNW 3.5 mph - N/A   Mostly Cloudy
7:33 PM 21.2 °F 11.7 °F 8.6 °F 58% 30.01 in 10.0 mi WNW 8.1 mph - N/A   Scattered Clouds
7:52 PM 19.4 °F 8.6 °F 8.6 °F 63% 30.02 in 10.0 mi NW 9.2 mph - N/A   Clear
8:12 PM 19.4 °F 8.6 °F 8.6 °F 63% 30.04 in 10.0 mi WNW 9.2 mph - N/A   Scattered Clouds
8:33 PM 19.4 °F 9.5 °F 8.6 °F 63% 30.05 in 10.0 mi NNW 8.1 mph - N/A   Mostly Cloudy
8:53 PM 19.4 °F 7.2 °F 8.6 °F 63% 30.06 in 10.0 mi NNW 11.5 mph 19.6 mph N/A   Overcast
9:12 PM 17.6 °F 3.7 °F 6.8 °F 63% 30.07 in 10.0 mi NNW 13.8 mph - N/A   Overcast
9:53 PM 17.6 °F 5.0 °F 5.0 °F 58% 30.09 in 10.0 mi NW 11.5 mph 17.3 mph N/A   Overcast
10:12 PM 15.8 °F 5.1 °F 5.0 °F 62% 30.10 in 10.0 mi NW 8.1 mph - N/A   Overcast
10:33 PM 15.8 °F 7.2 °F 3.2 °F 58% 30.10 in 10.0 mi NW 5.8 mph - N/A   Overcast
10:53 PM 15.8 °F 6.1 °F 5.0 °F 62% 30.11 in 10.0 mi WNW 6.9 mph - N/A   Overcast
11:12 PM 15.8 °F 6.1 °F 5.0 °F 62% 30.12 in 10.0 mi NW 6.9 mph - N/A Snow Light Snow
11:33 PM 15.8 °F 8.6 °F 5.0 °F 62% 30.13 in 10.0 mi NW 4.6 mph - N/A Snow Light Snow
11:53 PM 15.8 °F 7.2 °F 5.0 °F 62% 30.15 in 7.0 mi NW 5.8 mph - N/A Snow Light Snow